Voltar ao catálogo

SENTINEL 1A

AtivoCiênciaSSO
NORAD 39634·PAYLOAD·🇪🇺 EU

Lançado Apr 3, 2014 de Guiana Space Centre

Loading…

Próximas Passagens (próximas 24 horas)

TLE

AtualizadoSource: Space-Track

Época: Sep 14, 2026, 13:34 UTC

1 39634U 14016A   26257.56545641 -.00000036  00000-0  21334-5 0  9993
2 39634  98.1587 263.7004 0001408  85.0608 275.0753 14.59804504663056

Acompanhe SENTINEL 1A em tempo real com AllMySat

Download on the App Store